Theta_e
293 293 293 293 293 293 292 293 291 293 294 299 303 305 306 307 306 307 308 309 310 309 308 308 308 310 313 313 312 313 317 317 317 318 320 320 320 320 321 322 322 323 323 323
290 294 293 291 293 294 295 295 295 295 294 302 308 308 307 308 308 308 309 310 311 311 309 309 310 311 312 313 312 313 317 317 318 318 321 320 319 320 320 318 321 325 323 325
284 293 291 287 292 293 295 298 298 293 296 300 304 307 308 307 308 309 310 311 311 311 310 310 311 312 311 312 312 313 316 318 318 319 320 320 320 319 317 314 316 320 322 322
282 288 280 292 297 297 296 298 299 298 299 303 306 310 311 311 310 310 311 312 312 313 311 310 312 312 312 311 314 313 314 318 318 320 319 319 319 317 313 311 312 314 317 318
282 283 289 293 297 295 293 294 300 301 299 303 307 309 305 312 313 312 312 313 313 314 313 310 310 312 312 310 313 313 314 316 316 320 316 316 316 314 311 310 309 311 312 315
285 280 281 291 299 301 300 292 301 300 300 301 304 302 306 310 313 312 312 313 313 314 313 310 310 312 311 310 313 313 314 316 315 319 316 314 314 313 311 310 310 309 310 313
283 282 290 296 300 304 291 291 302 306 302 300 303 308 310 312 313 313 312 312 313 313 311 310 311 313 311 309 312 314 316 315 314 317 316 315 314 313 311 310 309 307 307 306
286 285 285 299 298 293 296 300 302 307 308 301 306 303 306 312 313 312 310 311 313 312 311 311 312 313 311 308 312 315 315 314 313 315 319 316 314 314 312 310 308 306 305 304
290 292 297 299 296 300 300 298 299 300 310 309 303 303 305 310 312 312 312 313 314 313 310 310 312 314 311 310 309 313 313 313 310 313 315 316 313 313 312 310 308 307 305 304
291 297 296 298 299 299 300 299 301 303 311 311 303 304 306 311 312 312 313 313 314 312 310 309 312 314 313 310 310 311 310 311 310 312 311 315 316 315 315 312 310 311 309 306
291 296 296 299 297 298 300 301 302 304 310 312 308 304 308 309 312 314 314 314 314 312 311 311 313 313 313 311 310 309 309 309 309 312 312 315 316 315 316 316 314 314 313 311
288 295 295 296 298 300 299 299 302 303 308 311 313 311 306 309 313 315 314 314 314 313 312 312 313 313 314 313 312 310 308 307 308 311 312 315 315 311 298 302 301 300 302 309
294 299 300 300 301 304 300 300 303 304 308 309 314 315 312 308 312 314 315 315 315 313 314 313 313 313 315 316 313 311 310 309 308 309 313 314 315 315 312 306 298 297 297 299
300 299 299 299 297 302 302 302 305 306 308 309 312 316 316 310 312 315 315 316 316 315 315 314 314 313 315 317 315 313 311 303 309 310 312 314 315 315 315 313 312 309 297 299
298 301 300 300 301 302 303 303 303 304 306 308 311 313 316 316 313 313 315 316 317 316 315 315 314 314 317 317 316 314 313 311 311 310 312 312 315 315 314 313 313 309 300 295
300 301 300 300 300 301 302 302 302 303 307 306 309 312 316 318 317 317 317 318 315 315 316 316 315 316 317 317 316 315 314 306 307 311 311 312 313 313 313 312 311 311 307 309
294 295 298 299 299 299 300 303 303 305 306 307 309 312 316 316 317 316 317 318 317 318 318 317 317 318 318 318 317 316 315 310 303 310 312 312 313 313 313 313 311 310 310 307
297 298 299 301 300 299 300 302 303 305 304 309 311 310 311 311 311 313 316 317 317 317 319 320 320 319 319 318 317 317 316 313 312 312 312 312 312 313 313 313 312 311 310 305
298 298 300 301 303 300 300 301 302 305 304 306 311 310 309 309 310 311 313 316 316 315 316 321 310 310 319 315 314 318 316 313 313 314 313 304 307 312 312 312 312 312 311 306
299 299 300 301 303 305 302 302 306 305 304 305 307 310 307 308 310 313 314 314 316 317 319 320 317 319 321 314 306 318 317 315 314 314 313 311 311 311 312 304 311 311 311 310
300 300 300 300 302 305 306 304 303 303 304 306 305 307 307 306 309 312 314 313 316 318 318 308 315 319 316 309 311 317 317 316 315 314 313 312 311 312 312 311 310 311 309 310
301 301 300 300 300 301 304 305 306 305 304 305 306 307 307 306 308 311 315 314 315 294 308 318 315 305 308 297 317 316 317 317 316 315 314 313 313 311 312 312 311 311 310 309
302 302 303 301 300 301 303 304 305 306 308 308 307 307 309 309 311 312 310 314 316 306 311 313 300 290 294 317 315 316 317 317 316 315 315 314 314 314 314 314 313 312 310 305
302 303 303 305 303 301 301 303 305 305 307 308 310 311 313 310 311 314 313 300 293 297 311 310 305 293 301 314 314 314 314 314 314 314 313 302 312 312 312 311 309 306 308 305
302 302 303 303 304 303 304 305 305 305 306 306 306 309 311 313 310 313 314 312 292 301 313 300 295 298 315 314 313 312 312 311 311 311 310 310 309 310 309 308 306 304 301 301
301 301 302 304 304 305 306 307 305 304 305 305 307 309 312 315 313 313 315 306 314 302 313 315 315 316 316 315 314 312 310 307 308 307 305 304 303 302 302 301 300 299 298 297
301 298 302 302 304 304 304 303 304 304 305 304 306 309 312 312 310 310 306 314 313 311 311 310 310 306 313 314 313 312 311 308 302 305 304 302 300 299 299 298 297 297 296 296
Wind_Speed
16 21 9 2 9 21 20 18 14 11 9 9 11 10 14 10 9 11 12 12 13 12 10 9 8 7 7 7 7 6 6 6 5 5 4 4 5 4 4 5 4 6 7 6
7 16 23 18 5 18 19 15 11 9 9 8 11 7 7 13 14 15 16 15 15 13 12 12 12 10 8 7 7 7 7 7 6 6 5 5 5 4 5 5 5 6 6 6
7 11 9 16 28 12 9 16 17 12 9 8 5 11 13 11 15 17 17 17 17 16 15 13 12 12 10 9 7 8 7 6 6 6 6 5 5 4 4 5 5 4 5 5
7 3 9 18 10 16 11 8 11 5 11 16 16 19 16 16 20 16 16 17 16 14 12 12 11 9 8 9 10 9 7 7 6 6 6 6 6 5 5 3 5 4 4 5
3 4 5 4 1 10 10 13 9 13 7 10 13 11 2 11 17 21 21 19 16 15 15 11 13 11 11 9 10 10 9 8 7 7 7 6 6 6 3 5 3 3 3 6
2 4 7 4 16 16 1 9 7 5 10 10 12 10 10 12 14 12 10 13 15 13 13 13 12 12 13 12 12 12 10 10 8 8 8 7 7 7 3 3 5 5 5 5
3 4 3 19 21 11 9 5 21 12 11 10 12 12 15 16 18 16 16 15 11 14 15 16 13 14 13 13 15 14 11 8 8 8 10 8 7 5 6 5 5 5 6 3
4 5 3 21 8 10 9 12 14 15 14 11 17 9 8 17 19 16 14 11 14 14 14 14 15 15 14 15 13 12 12 10 8 7 8 7 8 6 6 7 6 5 6 3
3 2 4 7 6 7 7 11 12 16 17 13 9 9 11 12 14 16 19 17 16 16 13 12 15 17 16 13 13 13 12 11 8 8 7 9 8 7 5 6 6 6 5 4
7 8 11 10 8 11 13 13 16 15 15 14 9 9 12 13 12 13 14 14 14 15 15 14 15 17 16 14 15 14 13 11 9 10 7 6 6 7 6 6 5 5 5 5
5 9 16 5 18 16 19 19 19 18 14 13 7 3 10 12 14 15 16 15 15 17 16 17 17 15 13 15 15 14 13 11 10 9 10 8 7 8 8 8 9 8 6 6
1 11 9 13 15 20 17 17 19 18 19 16 12 6 3 8 15 15 14 14 14 16 15 15 16 15 15 16 17 15 13 10 10 9 8 7 7 4 7 1 11 11 12 9
4 10 10 18 17 13 15 14 17 17 13 13 12 7 3 4 6 16 15 17 17 19 17 16 17 17 16 17 17 16 15 13 9 10 9 9 7 8 7 1 3 6 9 14
10 11 9 17 11 14 14 13 13 13 10 9 12 13 10 2 5 8 17 18 16 15 15 16 17 17 17 17 17 16 13 14 11 10 10 10 9 9 8 8 8 5 5 8
11 13 10 14 13 13 12 8 13 15 13 13 13 15 14 10 8 6 5 3 14 15 14 15 16 15 15 17 17 15 12 10 11 10 10 10 9 9 8 8 8 5 3 2
11 11 12 14 17 13 9 9 6 12 13 9 13 14 13 9 9 12 12 11 5 8 15 15 16 15 17 16 16 12 12 15 13 10 8 9 8 9 8 8 7 7 7 8
12 9 8 12 15 12 9 8 5 6 10 10 9 10 12 11 10 11 10 10 9 6 4 8 17 14 16 17 17 12 10 9 11 9 10 10 10 10 9 8 8 8 9 8
8 13 14 12 14 10 11 6 7 4 5 8 7 8 10 11 9 7 6 7 11 11 7 6 4 10 15 16 15 11 10 10 11 11 9 10 10 9 9 10 10 9 8 6
9 11 12 12 10 8 9 8 8 6 1 6 4 5 4 6 8 8 6 6 9 10 10 16 8 9 13 16 15 10 10 11 11 9 10 9 7 10 10 11 10 10 9 7
12 11 13 12 14 12 11 11 7 7 4 1 3 2 4 5 6 10 10 8 5 1 10 16 8 10 13 14 16 11 11 12 12 11 10 10 10 10 10 11 11 10 9 9
12 11 10 9 10 13 8 7 7 7 5 4 3 3 3 1 6 3 5 6 9 12 14 19 9 10 6 8 11 8 10 11 11 11 11 11 11 11 10 11 11 10 10 9
13 11 12 10 9 11 10 8 6 7 5 7 6 5 2 1 5 3 4 4 4 4 2 10 5 18 7 10 9 8 9 11 10 10 9 10 10 10 11 11 11 11 10 10
11 11 9 8 9 10 10 9 9 8 5 6 5 7 6 5 5 3 5 4 3 5 4 5 4 19 10 5 6 7 8 9 9 9 9 9 10 10 10 11 10 9 8 6
14 15 13 6 6 7 9 12 8 10 8 7 7 6 4 2 3 2 3 3 4 7 5 4 7 23 11 5 5 5 5 6 6 5 5 7 6 5 6 6 6 5 4 6
15 14 16 14 8 3 7 10 8 12 10 9 8 7 7 5 4 3 0 1 3 5 7 7 13 13 2 4 4 5 4 4 4 5 4 4 5 5 5 5 6 6 6 5
12 10 12 15 12 7 4 5 8 7 7 8 8 5 4 4 3 6 4 4 5 6 6 8 7 3 3 4 4 5 5 5 5 5 5 5 5 5 5 5 5 6 7 7
8 8 9 10 9 9 9 7 5 4 3 5 5 3 4 5 5 4 7 9 2 4 3 5 3 2 2 6 6 5 4 5 4 5 5 5 5 5 4 4 5 6 6 6
Wind_Direction
271 253 275 192 184 202 206 206 194 220 192 211 187 176 198 176 146 152 162 173 176 178 178 180 177 166 165 167 164 159 153 148 155 138 138 109 99 97 89 75 86 113 108 96
263 236 239 249 250 203 209 205 217 181 218 198 191 151 124 179 167 175 179 182 180 181 177 182 183 177 166 169 166 157 157 163 150 133 136 118 106 100 92 76 96 105 100 116
280 217 231 254 240 228 210 204 196 195 213 149 143 170 180 178 186 184 183 186 182 184 183 183 183 176 170 169 153 162 161 156 157 148 144 141 127 104 82 89 90 94 93 105
277 226 198 247 214 220 213 220 213 167 172 177 178 193 187 192 182 188 186 185 190 183 182 183 177 175 151 148 163 165 164 161 161 158 145 147 138 133 111 93 109 122 116 107
241 238 275 272 235 181 168 246 212 218 197 193 183 159 211 199 192 189 187 187 184 183 180 168 171 164 151 154 161 166 172 168 167 156 137 149 157 149 129 118 96 98 114 117
309 245 205 30 323 320 202 228 343 235 189 152 134 167 213 185 197 200 195 180 175 178 168 165 171 158 155 160 164 177 178 176 168 154 146 153 158 151 139 133 125 119 104 114
292 288 323 340 324 302 165 258 321 315 281 161 169 190 195 183 195 190 178 175 159 164 170 177 160 160 166 163 179 182 175 165 162 159 155 156 148 141 134 128 117 113 109 107
192 246 249 353 16 49 310 310 310 309 298 240 195 182 163 182 189 179 162 148 161 168 176 167 163 166 169 182 177 170 166 164 170 164 160 152 150 143 143 136 134 134 123 93
279 58 48 356 20 326 306 306 311 305 308 280 235 187 172 184 181 184 174 171 167 168 160 166 169 174 177 178 163 164 165 169 167 166 161 158 154 153 143 150 147 155 153 156
331 47 347 285 337 345 331 326 323 322 315 295 208 203 178 172 174 175 174 172 162 156 164 169 177 182 185 160 164 163 170 172 164 168 164 162 166 163 163 163 161 164 164 173
282 341 327 216 335 325 323 329 339 337 333 334 334 161 201 177 177 177 180 167 165 169 172 178 175 178 166 163 165 169 171 172 171 178 180 173 177 175 177 190 179 173 185 171
323 302 286 287 304 315 315 329 333 338 339 346 346 345 62 215 175 172 173 170 172 174 171 172 174 174 169 168 170 169 172 175 176 175 177 179 174 146 44 193 190 189 167 166
244 279 283 294 296 295 311 318 326 335 335 341 340 359 335 157 221 167 168 170 173 174 174 170 172 174 173 173 173 179 180 176 171 171 175 173 178 182 193 359 104 187 196 185
219 260 267 288 296 307 305 313 326 331 325 348 2 21 10 163 111 195 165 179 176 171 166 168 171 179 175 174 178 179 181 173 174 179 178 179 182 187 189 191 202 202 198 198
343 322 257 279 295 293 304 321 339 341 337 349 20 24 15 14 63 65 26 195 166 162 163 166 173 180 174 175 177 180 173 175 178 177 179 180 179 181 185 188 197 179 125 137
308 301 267 260 275 286 303 320 336 339 337 340 18 27 13 17 45 64 55 57 97 184 169 175 180 179 171 174 177 177 182 176 173 173 168 173 177 180 183 186 188 188 193 205
321 339 304 246 274 296 295 297 286 328 321 349 7 29 37 31 32 40 53 57 59 28 329 212 184 167 173 175 175 179 179 166 169 166 174 180 181 185 186 189 195 196 204 191
264 264 263 264 261 271 292 281 285 301 325 319 356 33 44 40 32 7 25 59 52 27 21 330 292 189 175 176 177 173 173 167 177 183 176 182 187 186 186 192 197 198 206 190
319 300 290 309 280 248 269 267 265 259 267 315 2 21 47 51 29 4 315 80 66 51 355 339 266 213 188 177 169 168 166 167 177 181 182 178 176 185 189 196 201 200 197 180
314 317 317 324 312 317 272 259 250 259 234 178 316 22 22 57 47 14 346 17 37 158 13 319 281 239 210 173 171 169 170 172 179 182 178 180 185 194 198 200 200 199 197 191
305 300 298 290 284 284 291 282 249 244 241 215 184 193 213 219 109 70 19 15 20 2 331 307 297 277 191 145 171 165 168 170 175 182 183 185 188 192 196 200 203 201 201 198
315 300 285 273 278 285 299 299 315 263 213 199 155 186 161 12 53 69 154 135 184 153 311 274 288 260 136 151 166 158 168 178 188 185 186 178 192 194 203 202 202 207 206 200
327 326 315 274 268 278 294 289 285 295 221 206 204 217 164 242 109 31 354 122 163 29 253 264 282 257 121 129 148 170 181 183 185 187 191 180 191 202 203 207 207 203 198 178
346 344 340 333 230 258 263 270 255 255 242 235 204 198 165 174 51 224 283 324 322 164 229 285 318 282 128 127 132 149 165 170 171 168 175 179 177 175 185 176 166 138 169 207
347 350 349 346 340 265 275 274 262 260 250 244 236 203 195 221 186 149 327 139 91 356 7 347 281 238 348 70 116 126 136 136 138 139 151 153 159 154 160 158 153 150 128 144
339 343 341 348 349 331 307 266 252 237 226 234 241 207 187 189 225 158 158 195 132 145 203 195 257 305 94 89 117 105 109 117 113 97 112 111 99 90 101 102 112 120 119 130
332 348 347 349 352 352 354 349 331 320 267 221 239 221 174 175 166 241 202 160 209 210 206 94 116 38 98 123 104 91 91 86 85 106 97 91 99 106 101 107 113 112 113 124